Time,TemperatureF,DewpointF,PressureIn,WindDirection,WindDirectionDegrees,WindSpeedMPH,WindSpeedGustMPH,Humidity,HourlyPrecipIn,Conditions,Clouds,dailyrainin,SoftwareType,DateUTC
2013-01-22 00:08:00,47.3,18.2,29.92,NNE,22,2.2,-999.0,31,-99.99,,,0.00,Acu-Link.com,2013-01-22 08:08:00,
2013-01-22 00:23:00,45.9,18.4,29.91,NE,45,2.2,-999.0,33,-99.99,,,0.00,Acu-Link.com,2013-01-22 08:23:00,
2013-01-22 00:38:00,45.5,18.1,29.91,NE,45,2.2,-999.0,33,-99.99,,,0.00,Acu-Link.com,2013-01-22 08:38:00,
2013-01-22 00:53:00,45.0,18.3,29.91,NNE,22,3.2,-999.0,34,-99.99,,,0.00,Acu-Link.com,2013-01-22 08:53:00,
2013-01-22 03:37:00,42.1,19.0,29.92,NE,45,0.0,-999.0,39,-99.99,,,0.00,Acu-Link.com,2013-01-22 11:37:00,
2013-01-22 03:53:00,41.7,18.6,29.91,NE,45,0.0,-999.0,39,-99.99,,,0.00,Acu-Link.com,2013-01-22 11:53:00,
2013-01-22 04:08:00,41.9,17.6,29.91,ENE,67,2.2,-999.0,37,-99.99,,,0.00,Acu-Link.com,2013-01-22 12:08:00,
2013-01-22 04:59:00,43.3,17.5,29.91,ENE,67,2.7,-999.0,35,-99.99,,,0.00,Acu-Link.com,2013-01-22 12:59:00,
2013-01-22 05:14:00,43.0,17.9,29.91,West,270,0.0,-999.0,36,-99.99,,,0.00,Acu-Link.com,2013-01-22 13:14:00,
2013-01-22 05:44:00,41.7,19.2,29.92,NE,45,2.2,-999.0,40,-99.99,,,0.00,Acu-Link.com,2013-01-22 13:44:00,
2013-01-22 05:59:00,41.0,20.2,29.92,North,0,1.7,-999.0,43,-99.99,,,0.00,Acu-Link.com,2013-01-22 13:59:00,
2013-01-22 06:14:00,40.1,20.5,29.93,North,0,1.7,-999.0,45,-99.99,,,0.00,Acu-Link.com,2013-01-22 14:14:00,
2013-01-22 06:31:00,41.0,19.1,29.93,WNW,292,2.2,-999.0,41,-99.99,,,0.00,Acu-Link.com,2013-01-22 14:31:00,
2013-01-22 06:46:00,42.3,17.9,29.92,ESE,112,1.7,-999.0,37,-99.99,,,0.00,Acu-Link.com,2013-01-22 14:46:00,
2013-01-22 07:01:00,44.4,17.8,29.93,NNE,22,0.0,-999.0,34,-99.99,,,0.00,Acu-Link.com,2013-01-22 15:01:00,
2013-01-22 07:17:00,44.2,19.6,29.92,WNW,292,1.1,-999.0,37,-99.99,,,0.00,Acu-Link.com,2013-01-22 15:17:00,
2013-01-22 07:32:00,44.1,20.7,29.93,NNE,22,2.7,-999.0,39,-99.99,,,0.00,Acu-Link.com,2013-01-22 15:32:00,
2013-01-22 07:47:00,48.4,22.7,29.94,NNE,22,2.2,-999.0,36,-99.99,,,0.00,Acu-Link.com,2013-01-22 15:47:00,
2013-01-22 08:02:00,54.1,24.1,29.94,North,0,0.0,-999.0,31,-99.99,,,0.00,Acu-Link.com,2013-01-22 16:02:00,
2013-01-22 08:20:00,54.7,29.6,29.94,ESE,112,0.0,-999.0,38,-99.99,,,0.00,Acu-Link.com,2013-01-22 16:20:00,
2013-01-22 08:35:00,56.5,31.2,29.94,South,180,0.0,-999.0,38,-99.99,,,0.00,Acu-Link.com,2013-01-22 16:35:00,
2013-01-22 08:50:00,59.7,21.9,29.94,South,180,0.0,-999.0,23,-99.99,,,0.00,Acu-Link.com,2013-01-22 16:50:00,
2013-01-22 09:05:00,61.2,21.0,29.95,ESE,112,0.0,-999.0,21,-99.99,,,0.00,Acu-Link.com,2013-01-22 17:05:00,
2013-01-22 09:20:00,61.5,21.2,29.95,SSE,157,0.0,-999.0,21,-99.99,,,0.00,Acu-Link.com,2013-01-22 17:20:00,
2013-01-22 09:35:00,63.0,21.3,29.96,East,90,0.0,-999.0,20,-99.99,,,0.00,Acu-Link.com,2013-01-22 17:35:00,
2013-01-22 09:50:00,63.9,19.6,29.96,SW,225,0.0,-999.0,18,-99.99,,,0.00,Acu-Link.com,2013-01-22 17:50:00,
2013-01-22 10:05:00,66.0,19.9,29.96,NNE,22,0.0,-999.0,17,-99.99,,,0.00,Acu-Link.com,2013-01-22 18:05:00,
2013-01-22 10:21:00,67.1,20.8,29.95,SSW,202,0.0,-999.0,17,-99.99,,,0.00,Acu-Link.com,2013-01-22 18:21:00,
2013-01-22 10:36:00,68.5,23.3,29.94,NNE,22,0.0,-999.0,18,-99.99,,,0.00,Acu-Link.com,2013-01-22 18:36:00,
2013-01-22 10:51:00,70.2,23.4,29.95,WSW,247,0.0,-999.0,17,-99.99,,,0.00,Acu-Link.com,2013-01-22 18:51:00,
2013-01-22 11:36:00,74.1,23.5,29.92,ESE,112,0.0,-999.0,15,-99.99,,,0.00,Acu-Link.com,2013-01-22 19:36:00,
2013-01-22 12:21:00,76.3,20.0,29.89,South,180,2.7,-999.0,12,-99.99,,,0.00,Acu-Link.com,2013-01-22 20:21:00,
2013-01-22 12:36:00,77.7,21.1,29.87,SSE,157,0.0,-999.0,12,-99.99,,,0.00,Acu-Link.com,2013-01-22 20:36:00,
2013-01-22 13:22:00,79.3,15.6,29.87,SE,135,2.2,-999.0,9,-99.99,,,0.00,Acu-Link.com,2013-01-22 21:22:00,
2013-01-22 13:37:00,78.4,17.3,29.87,SSE,157,2.7,-999.0,10,-99.99,,,0.00,Acu-Link.com,2013-01-22 21:37:00,
2013-01-22 13:52:00,78.8,17.6,29.86,South,180,0.0,-999.0,10,-99.99,,,0.00,Acu-Link.com,2013-01-22 21:52:00,
2013-01-22 14:07:00,77.9,17.0,29.86,ESE,112,0.0,-999.0,10,-99.99,,,0.00,Acu-Link.com,2013-01-22 22:07:00,
2013-01-22 14:22:00,76.8,18.3,29.87,SW,225,0.0,-999.0,11,-99.99,,,0.00,Acu-Link.com,2013-01-22 22:22:00,
2013-01-22 14:37:00,76.3,20.0,29.87,SSE,157,0.0,-999.0,12,-99.99,,,0.00,Acu-Link.com,2013-01-22 22:37:00,
2013-01-22 14:52:00,76.3,21.8,29.87,SSW,202,0.0,-999.0,13,-99.99,,,0.00,Acu-Link.com,2013-01-22 22:52:00,
2013-01-22 15:08:00,77.5,24.6,29.87,SW,225,0.0,-999.0,14,-99.99,,,0.00,Acu-Link.com,2013-01-22 23:08:00,
2013-01-22 15:38:00,77.4,24.5,29.87,West,270,0.0,-999.0,14,-99.99,,,0.00,Acu-Link.com,2013-01-22 23:38:00,
2013-01-22 15:53:00,76.3,25.3,29.86,NNW,337,0.0,-999.0,15,-99.99,,,0.00,Acu-Link.com,2013-01-22 23:53:00,
2013-01-22 16:08:00,74.1,23.5,29.86,WNW,292,0.0,-999.0,15,-99.99,,,0.00,Acu-Link.com,2013-01-23 00:08:00,
2013-01-22 16:23:00,71.6,28.4,29.86,NNE,22,0.0,-999.0,20,-99.99,,,0.00,Acu-Link.com,2013-01-23 00:23:00,
2013-01-22 16:38:00,68.9,29.6,29.86,NE,45,1.7,-999.0,23,-99.99,,,0.00,Acu-Link.com,2013-01-23 00:38:00,
2013-01-22 16:53:00,66.4,30.5,29.86,WNW,292,0.0,-999.0,26,-99.99,,,0.00,Acu-Link.com,2013-01-23 00:53:00,
2013-01-22 17:08:00,63.9,30.2,29.87,North,0,0.0,-999.0,28,-99.99,,,0.00,Acu-Link.com,2013-01-23 01:08:00,
2013-01-22 17:24:00,61.5,29.0,29.87,East,90,0.0,-999.0,29,-99.99,,,0.00,Acu-Link.com,2013-01-23 01:24:00,
2013-01-22 17:39:00,59.9,26.7,29.88,NNW,337,0.0,-999.0,28,-99.99,,,0.00,Acu-Link.com,2013-01-23 01:39:00,
2013-01-22 17:54:00,59.2,27.0,29.87,NE,45,1.7,-999.0,29,-99.99,,,0.00,Acu-Link.com,2013-01-23 01:54:00,
2013-01-22 18:09:00,58.5,26.4,29.88,NNE,22,0.0,-999.0,29,-99.99,,,0.00,Acu-Link.com,2013-01-23 02:09:00,
2013-01-22 18:24:00,57.6,26.4,29.89,NNE,22,1.7,-999.0,30,-99.99,,,0.00,Acu-Link.com,2013-01-23 02:24:00,
2013-01-22 18:39:00,57.2,28.4,29.90,NW,315,0.0,-999.0,33,-99.99,,,0.00,Acu-Link.com,2013-01-23 02:39:00,
2013-01-22 18:54:00,56.7,27.9,29.91,NNW,337,0.0,-999.0,33,-99.99,,,0.00,Acu-Link.com,2013-01-23 02:54:00,
2013-01-22 19:09:00,56.3,29.0,29.90,NE,45,1.7,-999.0,35,-99.99,,,0.00,Acu-Link.com,2013-01-23 03:09:00,
2013-01-22 19:24:00,55.4,27.5,29.91,NE,45,1.1,-999.0,34,-99.99,,,0.00,Acu-Link.com,2013-01-23 03:24:00,
2013-01-22 19:40:00,55.9,25.7,29.90,NNE,22,3.2,-999.0,31,-99.99,,,0.00,Acu-Link.com,2013-01-23 03:40:00,
2013-01-22 19:55:00,57.2,26.1,29.90,NNE,22,4.7,-999.0,30,-99.99,,,0.00,Acu-Link.com,2013-01-23 03:55:00,
2013-01-22 20:10:00,57.2,25.2,29.89,NE,45,2.7,-999.0,29,-99.99,,,0.00,Acu-Link.com,2013-01-23 04:10:00,
2013-01-22 20:25:00,56.1,25.9,29.90,NNW,337,1.1,-999.0,31,-99.99,,,0.00,Acu-Link.com,2013-01-23 04:25:00,
2013-01-22 20:41:00,55.9,24.9,29.91,NNW,337,0.0,-999.0,30,-99.99,,,0.00,Acu-Link.com,2013-01-23 04:41:00,
2013-01-22 20:56:00,54.9,25.6,29.91,NNE,22,2.2,-999.0,32,-99.99,,,0.00,Acu-Link.com,2013-01-23 04:56:00,
2013-01-22 21:26:00,54.0,26.3,29.91,NNE,22,1.7,-999.0,34,-99.99,,,0.00,Acu-Link.com,2013-01-23 05:26:00,
2013-01-22 21:41:00,53.8,26.8,29.92,NNE,22,2.2,-999.0,35,-99.99,,,0.00,Acu-Link.com,2013-01-23 05:41:00,
2013-01-22 21:56:00,53.1,27.5,29.92,NNW,337,0.0,-999.0,37,-99.99,,,0.00,Acu-Link.com,2013-01-23 05:56:00,
2013-01-22 22:11:00,52.5,26.3,29.93,NW,315,0.0,-999.0,36,-99.99,,,0.00,Acu-Link.com,2013-01-23 06:11:00,
2013-01-22 22:27:00,52.3,26.8,29.93,ESE,112,0.0,-999.0,37,-99.99,,,0.00,Acu-Link.com,2013-01-23 06:27:00,
2013-01-22 22:42:00,52.7,26.5,29.93,WNW,292,1.1,-999.0,36,-99.99,,,0.00,Acu-Link.com,2013-01-23 06:42:00,
2013-01-22 22:57:00,54.1,24.9,29.93,NNE,22,2.2,-999.0,32,-99.99,,,0.00,Acu-Link.com,2013-01-23 06:57:00,
2013-01-22 23:12:00,56.5,24.6,29.93,NE,45,2.2,-999.0,29,-99.99,,,0.00,Acu-Link.com,2013-01-23 07:12:00,
2013-01-22 23:27:00,56.8,24.9,29.92,ENE,67,0.0,-999.0,29,-99.99,,,0.00,Acu-Link.com,2013-01-23 07:27:00,
2013-01-22 23:57:00,59.2,24.3,29.92,North,0,1.7,-999.0,26,-99.99,,,0.00,Acu-Link.com,2013-01-23 07:57:00,